Location: Newark
(0.5300°S, 127.4800°E)
Time: 08:22:57
(UTC+00:00)

Courier 1B - Visible Passes

Search period start: 22 October 2019 00:00
Search period end: 01 November 2019 00:00
Orbit: 962 x 1209 km, 28.3° (Epoch: 22 October)

Date Brightness Start Highest point End Pass type
(mag) Time Alt. Az. Time Alt. Az. Time Alt. Az.
22 Oct 9.5 18:46:31 18° S 18:46:31 18° S 18:48:56 10° SSE visible
24 Oct 9.8 18:52:26 11° S 18:52:26 11° S 18:53:32 10° S visible
28 Oct 9.8 11:20:42 10° NNW 11:22:33 14° N 11:22:33 14° N visible
29 Oct 9.6 10:27:46 10° N 10:31:27 14° NNE 10:32:23 13° NNE visible
30 Oct 9.8 09:36:03 10° N 09:37:03 10° NNE 09:38:04 10° NNE visible
30 Oct 9.4 11:25:51 10° NNW 11:29:13 22° N 11:29:13 22° N visible
31 Oct 9.0 10:32:29 10° NNW 10:38:24 23° NNE 10:39:15 23° NE visible
31 Oct 10.1 12:25:20 10° NW 12:26:11 14° NW 12:26:11 14° NW visible
